User: anonymous   Login
Location: Bucharest
(44.4268°N, 26.1025°E)
Time: 13:58:00
(UTC+02:00)
Language:

HAWK-4C - Orbit

View from above orbital plane
View from above orbital plane
View from above satellite
View from above satellite

Ground track
Ground track

The orbit data is extracted from the following two-line orbital elements,

1 52170U 22033P   22337.81469758  .00004688  00000-0  19797-3 0  9992
2 52170  97.3761  56.3017 0012947 126.5230 233.7202 15.23668810 37452
Epoch (UTC): 03 December 2022 19:33:09
Eccentricity: 0.0012947
inclination: 97.3761°
perigee height: 486 km
apogee height: 503 km
right ascension of ascending node: 56.3017°
argument of perigee: 126.5230°
revolutions per day: 15.23668810
mean anomaly at epoch: 233.7202°
orbit number at epoch: 3745

The dashed part of the orbit path shows where the satellite is in the earth's shadow,  

DLR